Terug naar catalogus

FENGYUN 1C DEB

ActiefPO
NORAD 32243·DEBRIS·🇨🇳 China

Gelanceerd May 10, 1999 vanaf Taiyuan Satellite Launch Center

Loading…

Volgende Passages (komende 24 uur)

TLE

VersSource: Space-Track

Epoch: Sep 13, 2026, 23:36 UTC

1 32243U 99025CWR 26256.98349251  .00002395  00000-0  10665-2 0  9990
2 32243  98.2566 262.7458 0266072  58.3315 304.3511 14.06508196974551

Volg FENGYUN 1C DEB in realtime met AllMySat

Download on the App Store